Location: La Sioule Rivi�re
(46.3664°N, 3.3197°E)
Time: 13:06:02
(UTC+00:00)

Cosmos 1697 Rocket - Pass Details

Date: 29 October 2020
Orbit: 831 x 845 km, 71.0° (Epoch: 23 November)

Event Time Altitude Azimuth Distance (km) Brightness Sun altitude
Rises 17:06:21 0° 165° (SSE) 3,363 5.8 -5.9°
Reaches altitude 10° 17:09:15 10° 151° (SSE) 2,436 4.9 -6.3°
Maximum altitude 17:13:28 23° 101° (E) 1,729 3.8 -7.1°
Drops below altitude 10° 17:17:43 10° 52° (NE) 2,455 4.6 -7.8°
Enters shadow 17:19:49 - 41° (NE) 3,117 5.2 -8.1°
